User: anonymous   Login
Location: Unspecified
(0.0000°N, 0.0000°E)
Time: 14:33:38
(UTC+00:00)
Language:

AO-27 - Orbit

View from above orbital plane
View from above orbital plane
View from above satellite
View from above satellite

Ground track
Ground track

The orbit data is extracted from the following two-line orbital elements,

1 22825U 93061C   17084.85835665 -.00000001 +00000-0 +17280-4 0  9998
2 22825 098.8026 049.4597 0007781 208.5132 151.5625 14.29989784225225
Epoch (UTC): 25 March 2017 20:36:02
Eccentricity: 0.0007781
inclination: 98.8026°
perigee height: 786 km
apogee height: 797 km
right ascension of ascending node: 49.4597°
argument of perigee: 208.5132°
revolutions per day: 14.29989784
mean anomaly at epoch: 151.5625°
orbit number at epoch: 22522

The dashed part of the orbit path shows where the satellite is in the earth's shadow,  

DLR